Time,TemperatureF,DewpointF,PressureIn,WindDirection,WindDirectionDegrees,WindSpeedMPH,WindSpeedGustMPH,Humidity,HourlyPrecipIn,Conditions,Clouds,dailyrainin,SoftwareType,DateUTC
2013-01-29 00:02:00,32.0,23.0,28.41,West,270,0.0,0.0,69,0.00,CLR,CLR,0.00,WeatherDisplay:10.37,2013-01-29 06:02:00,
2013-01-29 00:07:00,32.0,23.0,28.41,WNW,292,0.0,0.0,69,0.00,CLR,CLR,0.00,WeatherDisplay:10.37,2013-01-29 06:07:00,
2013-01-29 00:12:00,32.0,23.0,28.41,West,270,0.0,0.0,69,0.00,CLR,CLR,0.00,WeatherDisplay:10.37,2013-01-29 06:12:00,
2013-01-29 00:17:00,32.0,23.0,28.41,West,270,0.0,0.0,69,0.00,CLR,CLR,0.00,WeatherDisplay:10.37,2013-01-29 06:17:00,
2013-01-29 00:22:00,32.0,23.0,28.41,West,270,0.0,0.0,69,0.00,CLR,CLR,0.00,WeatherDisplay:10.37,2013-01-29 06:22:00,
2013-01-29 00:27:00,32.0,23.0,28.41,West,270,0.0,0.0,69,0.00,CLR,CLR,0.00,WeatherDisplay:10.37,2013-01-29 06:27:00,
2013-01-29 00:32:00,32.0,23.0,28.41,West,270,0.0,0.0,69,0.00,CLR,CLR,0.00,WeatherDisplay:10.37,2013-01-29 06:32:00,
2013-01-29 00:37:00,32.0,23.0,28.41,WNW,292,0.0,0.0,69,0.00,CLR,CLR,0.00,WeatherDisplay:10.37,2013-01-29 06:37:00,
2013-01-29 00:42:00,32.0,23.0,28.41,West,270,2.3,0.0,69,0.00,CLR,CLR,0.00,WeatherDisplay:10.37,2013-01-29 06:42:00,
2013-01-29 00:47:00,32.0,23.0,28.44,West,270,0.0,0.0,69,0.00,CLR,CLR,0.00,WeatherDisplay:10.37,2013-01-29 06:47:00,
2013-01-29 00:52:00,32.0,23.0,28.44,WNW,292,3.6,0.0,69,0.00,CLR,CLR,0.00,WeatherDisplay:10.37,2013-01-29 06:52:00,
2013-01-29 00:57:00,32.0,23.0,28.44,NW,315,0.0,0.0,69,0.00,CLR,CLR,0.00,WeatherDisplay:10.37,2013-01-29 06:57:00,
2013-01-29 01:02:00,32.0,23.0,28.44,West,270,3.6,0.0,69,0.00,CLR,CLR,0.00,WeatherDisplay:10.37,2013-01-29 07:02:00,
2013-01-29 01:07:00,32.0,23.0,28.44,WSW,248,2.6,0.0,69,0.00,CLR,CLR,0.00,WeatherDisplay:10.37,2013-01-29 07:07:00,
2013-01-29 01:12:00,32.0,23.0,28.44,West,270,4.6,0.0,69,0.00,CLR,CLR,0.00,WeatherDisplay:10.37,2013-01-29 07:12:00,
2013-01-29 01:17:00,32.0,23.0,28.44,WNW,292,4.0,0.0,69,0.00,CLR,CLR,0.00,WeatherDisplay:10.37,2013-01-29 07:17:00,
2013-01-29 01:22:00,32.0,23.0,28.44,WSW,248,0.0,0.0,69,0.00,CLR,CLR,0.00,WeatherDisplay:10.37,2013-01-29 07:22:00,
2013-01-29 01:27:00,32.0,23.0,28.44,WNW,292,0.0,0.0,69,0.00,CLR,CLR,0.00,WeatherDisplay:10.37,2013-01-29 07:27:00,
2013-01-29 01:32:00,32.0,23.0,28.44,West,270,0.0,0.0,69,0.00,CLR,CLR,0.00,WeatherDisplay:10.37,2013-01-29 07:32:00,
2013-01-29 01:37:00,32.0,23.0,28.44,West,270,3.5,0.0,69,0.00,CLR,CLR,0.00,WeatherDisplay:10.37,2013-01-29 07:37:00,
2013-01-29 01:42:00,32.0,23.0,28.44,WNW,292,0.0,0.0,69,0.00,CLR,CLR,0.00,WeatherDisplay:10.37,2013-01-29 07:42:00,
2013-01-29 01:47:00,32.0,23.0,28.44,West,270,3.5,0.0,69,0.00,CLR,CLR,0.00,WeatherDisplay:10.37,2013-01-29 07:47:00,
2013-01-29 01:52:00,32.0,23.0,28.44,WNW,292,4.0,0.0,69,0.00,CLR,CLR,0.00,WeatherDisplay:10.37,2013-01-29 07:52:00,
2013-01-29 01:57:00,32.0,23.0,28.44,West,270,2.2,0.0,69,0.00,CLR,CLR,0.00,WeatherDisplay:10.37,2013-01-29 07:57:00,
2013-01-29 02:02:00,32.0,23.0,28.44,SW,225,2.3,0.0,69,0.00,CLR,CLR,0.00,WeatherDisplay:10.37,2013-01-29 08:02:00,
2013-01-29 02:07:00,32.0,23.0,28.44,West,270,0.0,0.0,69,0.00,CLR,CLR,0.00,WeatherDisplay:10.37,2013-01-29 08:07:00,
2013-01-29 02:12:00,32.0,23.0,28.44,NW,315,4.6,0.0,69,0.00,CLR,CLR,0.00,WeatherDisplay:10.37,2013-01-29 08:12:00,
2013-01-29 02:17:00,32.0,23.0,28.47,WNW,292,3.5,0.0,69,0.00,CLR,CLR,0.00,WeatherDisplay:10.37,2013-01-29 08:17:00,
2013-01-29 02:22:00,32.0,23.0,28.47,West,270,0.0,0.0,69,0.00,CLR,CLR,0.00,WeatherDisplay:10.37,2013-01-29 08:22:00,
2013-01-29 02:28:00,32.0,23.0,28.47,West,270,3.6,3.6,69,0.00,CLR,CLR,0.00,WeatherDisplay:10.37,2013-01-29 08:28:00,
2013-01-29 02:33:00,32.0,23.0,28.44,WNW,292,8.1,8.1,69,0.00,CLR,CLR,0.00,WeatherDisplay:10.37,2013-01-29 08:33:00,
2013-01-29 02:38:00,32.0,23.0,28.44,NW,315,2.6,0.0,69,0.00,CLR,CLR,0.00,WeatherDisplay:10.37,2013-01-29 08:38:00,
2013-01-29 02:43:00,32.0,23.0,28.44,WNW,292,0.0,0.0,69,0.00,CLR,CLR,0.00,WeatherDisplay:10.37,2013-01-29 08:43:00,
2013-01-29 02:48:00,32.0,23.0,28.44,WNW,292,3.5,0.0,69,0.00,CLR,CLR,0.00,WeatherDisplay:10.37,2013-01-29 08:48:00,
2013-01-29 02:53:00,32.0,23.0,28.44,WSW,248,3.5,0.0,69,0.00,CLR,CLR,0.00,WeatherDisplay:10.37,2013-01-29 08:53:00,
2013-01-29 02:58:00,32.0,23.0,28.44,WNW,292,0.0,0.0,69,0.00,CLR,CLR,0.00,WeatherDisplay:10.37,2013-01-29 08:58:00,
2013-01-29 03:03:00,32.0,23.0,28.47,WNW,292,0.0,0.0,69,0.00,CLR,CLR,0.00,WeatherDisplay:10.37,2013-01-29 09:03:00,
2013-01-29 03:08:00,32.0,23.0,28.47,WNW,292,0.0,0.0,69,0.00,CLR,CLR,0.00,WeatherDisplay:10.37,2013-01-29 09:08:00,
2013-01-29 03:13:00,32.0,23.0,28.47,WNW,292,0.0,0.0,69,0.00,CLR,CLR,0.00,WeatherDisplay:10.37,2013-01-29 09:13:00,
2013-01-29 03:18:00,32.0,23.0,28.47,NW,315,0.0,0.0,69,0.00,CLR,CLR,0.00,WeatherDisplay:10.37,2013-01-29 09:18:00,
2013-01-29 03:23:00,32.0,23.0,28.47,WNW,292,0.0,0.0,69,0.00,CLR,CLR,0.00,WeatherDisplay:10.37,2013-01-29 09:23:00,
2013-01-29 03:28:00,32.0,23.0,28.47,West,270,0.0,0.0,69,0.00,CLR,CLR,0.00,WeatherDisplay:10.37,2013-01-29 09:28:00,
2013-01-29 03:33:00,32.0,23.0,28.44,West,270,0.0,0.0,69,0.00,CLR,CLR,0.00,WeatherDisplay:10.37,2013-01-29 09:33:00,
2013-01-29 03:39:00,32.0,23.0,28.44,WNW,292,0.0,0.0,69,0.00,CLR,CLR,0.00,WeatherDisplay:10.37,2013-01-29 09:39:00,
2013-01-29 03:44:00,32.0,23.0,28.44,NNW,338,0.0,0.0,69,0.00,CLR,CLR,0.00,WeatherDisplay:10.37,2013-01-29 09:44:00,
2013-01-29 03:49:00,32.0,23.0,28.44,West,270,0.0,0.0,69,0.00,CLR,CLR,0.00,WeatherDisplay:10.37,2013-01-29 09:49:00,
2013-01-29 03:54:00,32.0,23.0,28.44,West,270,0.0,0.0,69,0.00,CLR,CLR,0.00,WeatherDisplay:10.37,2013-01-29 09:54:00,
2013-01-29 03:59:00,32.0,23.0,28.47,West,270,0.0,0.0,69,0.00,CLR,CLR,0.00,WeatherDisplay:10.37,2013-01-29 09:59:00,
2013-01-29 04:04:00,32.0,23.0,28.47,WSW,248,0.0,0.0,69,0.00,CLR,CLR,0.00,WeatherDisplay:10.37,2013-01-29 10:04:00,
2013-01-29 04:09:00,32.0,23.0,28.47,West,270,0.0,0.0,69,0.00,CLR,CLR,0.00,WeatherDisplay:10.37,2013-01-29 10:09:00,
2013-01-29 04:14:00,32.0,23.0,28.47,SW,225,0.0,0.0,69,0.00,CLR,CLR,0.00,WeatherDisplay:10.37,2013-01-29 10:14:00,
2013-01-29 04:19:00,32.0,23.0,28.50,SW,225,0.0,0.0,69,0.00,CLR,CLR,0.00,WeatherDisplay:10.37,2013-01-29 10:19:00,
2013-01-29 04:24:00,32.0,23.0,28.50,SW,225,0.0,0.0,69,0.00,CLR,CLR,0.00,WeatherDisplay:10.37,2013-01-29 10:24:00,
2013-01-29 04:29:00,32.0,23.0,28.50,WSW,248,0.0,0.0,69,0.00,CLR,CLR,0.00,WeatherDisplay:10.37,2013-01-29 10:29:00,
2013-01-29 04:34:00,32.0,23.0,28.47,West,270,0.0,0.0,69,0.00,CLR,CLR,0.00,WeatherDisplay:10.37,2013-01-29 10:34:00,
2013-01-29 04:39:00,32.0,23.0,28.47,West,270,0.0,0.0,69,0.00,CLR,CLR,0.00,WeatherDisplay:10.37,2013-01-29 10:39:00,
2013-01-29 04:44:00,32.0,23.0,28.47,WNW,292,0.0,0.0,69,0.00,CLR,CLR,0.00,WeatherDisplay:10.37,2013-01-29 10:44:00,
2013-01-29 04:49:00,32.0,23.0,28.47,West,270,0.0,0.0,69,0.00,CLR,CLR,0.00,WeatherDisplay:10.37,2013-01-29 10:49:00,
2013-01-29 04:54:00,32.0,23.0,28.47,West,270,0.0,0.0,69,0.00,CLR,CLR,0.00,WeatherDisplay:10.37,2013-01-29 10:54:00,
2013-01-29 04:59:00,32.0,23.0,28.47,WSW,248,0.0,0.0,69,0.00,CLR,CLR,0.00,WeatherDisplay:10.37,2013-01-29 10:59:00,
2013-01-29 05:04:00,32.0,23.0,28.47,WNW,292,0.0,0.0,69,0.00,CLR,CLR,0.00,WeatherDisplay:10.37,2013-01-29 11:04:00,
2013-01-29 05:09:00,32.0,23.0,28.47,NW,315,0.0,0.0,69,0.00,CLR,CLR,0.00,WeatherDisplay:10.37,2013-01-29 11:09:00,
2013-01-29 05:14:00,32.0,23.0,28.44,West,270,0.0,0.0,69,0.00,CLR,CLR,0.00,WeatherDisplay:10.37,2013-01-29 11:14:00,
2013-01-29 05:19:00,32.0,23.0,28.44,WNW,292,0.0,0.0,69,0.00,CLR,CLR,0.00,WeatherDisplay:10.37,2013-01-29 11:19:00,
2013-01-29 05:24:00,32.0,23.0,28.44,NW,315,0.0,0.0,69,0.00,CLR,CLR,0.00,WeatherDisplay:10.37,2013-01-29 11:24:00,
2013-01-29 05:29:00,32.0,23.0,28.44,WNW,292,0.0,0.0,69,0.00,CLR,CLR,0.00,WeatherDisplay:10.37,2013-01-29 11:29:00,
2013-01-29 05:34:00,32.0,23.0,28.44,WNW,292,0.0,0.0,69,0.00,CLR,CLR,0.00,WeatherDisplay:10.37,2013-01-29 11:34:00,
2013-01-29 05:39:00,32.0,23.0,28.44,WNW,292,0.0,0.0,69,0.00,CLR,CLR,0.00,WeatherDisplay:10.37,2013-01-29 11:39:00,
2013-01-29 05:44:00,32.0,23.0,28.47,WNW,292,0.0,0.0,69,0.00,CLR,CLR,0.00,WeatherDisplay:10.37,2013-01-29 11:44:00,
2013-01-29 05:49:00,32.0,23.0,28.47,WNW,292,0.0,0.0,69,0.00,CLR,CLR,0.00,WeatherDisplay:10.37,2013-01-29 11:49:00,
2013-01-29 05:54:00,32.0,23.0,28.47,WNW,292,0.0,0.0,69,0.00,CLR,CLR,0.00,WeatherDisplay:10.37,2013-01-29 11:54:00,
2013-01-29 05:59:00,32.0,23.0,28.47,NW,315,0.0,0.0,69,0.00,CLR,CLR,0.00,WeatherDisplay:10.37,2013-01-29 11:59:00,
2013-01-29 06:11:00,32.0,23.0,28.47,WNW,292,0.0,0.0,69,0.00,CLR,CLR,0.00,WeatherDisplay:10.37,2013-01-29 12:11:00,
2013-01-29 06:16:00,32.0,23.0,28.50,West,270,0.0,0.0,69,0.00,CLR,CLR,0.00,WeatherDisplay:10.37,2013-01-29 12:16:00,
2013-01-29 06:21:00,32.0,23.0,28.50,NW,315,0.0,0.0,69,0.00,CLR,CLR,0.00,WeatherDisplay:10.37,2013-01-29 12:21:00,
2013-01-29 06:26:00,32.0,23.0,28.50,West,270,0.0,0.0,69,0.00,CLR,CLR,0.00,WeatherDisplay:10.37,2013-01-29 12:26:00,
2013-01-29 06:31:00,32.0,23.0,28.50,West,270,0.0,0.0,69,0.00,CLR,CLR,0.00,WeatherDisplay:10.37,2013-01-29 12:31:00,
2013-01-29 06:36:00,32.0,23.0,28.50,West,270,0.0,0.0,69,0.00,CLR,CLR,0.00,WeatherDisplay:10.37,2013-01-29 12:36:00,
2013-01-29 06:41:00,32.0,23.0,28.50,West,270,0.0,0.0,69,0.00,CLR,CLR,0.00,WeatherDisplay:10.37,2013-01-29 12:41:00,
2013-01-29 06:46:00,32.0,23.0,28.50,West,270,0.0,0.0,69,0.00,CLR,CLR,0.00,WeatherDisplay:10.37,2013-01-29 12:46:00,
2013-01-29 06:51:00,32.0,23.0,28.50,WNW,292,2.3,0.0,69,0.00,CLR,CLR,0.00,WeatherDisplay:10.37,2013-01-29 12:51:00,
2013-01-29 06:56:00,32.0,23.0,28.50,NW,315,0.0,0.0,69,0.00,CLR,CLR,0.00,WeatherDisplay:10.37,2013-01-29 12:56:00,
2013-01-29 07:01:00,32.0,23.0,28.47,West,270,0.0,0.0,69,0.00,CLR,CLR,0.00,WeatherDisplay:10.37,2013-01-29 13:01:00,
2013-01-29 07:06:00,32.0,23.0,28.47,West,270,0.0,0.0,69,0.00,CLR,CLR,0.00,WeatherDisplay:10.37,2013-01-29 13:06:00,
2013-01-29 07:11:00,32.0,23.0,28.47,WSW,248,0.0,0.0,69,0.00,CLR,CLR,0.00,WeatherDisplay:10.37,2013-01-29 13:11:00,
2013-01-29 07:16:00,32.0,23.0,28.50,WSW,248,0.0,0.0,69,0.00,CLR,CLR,0.00,WeatherDisplay:10.37,2013-01-29 13:16:00,
2013-01-29 07:21:00,32.0,23.0,28.50,WSW,248,0.0,0.0,69,0.00,CLR,CLR,0.00,WeatherDisplay:10.37,2013-01-29 13:21:00,
2013-01-29 07:26:00,32.0,23.0,28.50,WSW,248,0.0,0.0,69,0.00,CLR,CLR,0.00,WeatherDisplay:10.37,2013-01-29 13:26:00,
2013-01-29 07:31:00,32.0,23.0,28.50,WSW,248,0.0,0.0,69,0.00,CLR,CLR,0.00,WeatherDisplay:10.37,2013-01-29 13:31:00,
2013-01-29 07:36:00,32.0,23.0,28.50,West,270,0.0,0.0,69,0.00,CLR,CLR,0.00,WeatherDisplay:10.37,2013-01-29 13:36:00,
2013-01-29 07:41:00,32.0,23.0,28.50,WSW,248,0.0,0.0,69,0.00,CLR,CLR,0.00,WeatherDisplay:10.37,2013-01-29 13:41:00,
2013-01-29 07:46:00,32.0,23.0,28.50,WNW,292,0.0,0.0,69,0.00,CLR,CLR,0.00,WeatherDisplay:10.37,2013-01-29 13:46:00,
2013-01-29 07:51:00,32.0,23.0,28.50,WNW,292,0.0,0.0,69,0.00,CLR,CLR,0.00,WeatherDisplay:10.37,2013-01-29 13:51:00,
2013-01-29 07:56:00,32.0,23.0,28.50,West,270,3.1,0.0,69,0.00,CLR,CLR,0.00,WeatherDisplay:10.37,2013-01-29 13:56:00,
2013-01-29 08:01:00,32.0,23.0,28.50,West,270,0.0,0.0,69,0.00,CLR,CLR,0.00,WeatherDisplay:10.37,2013-01-29 14:01:00,
2013-01-29 08:06:00,32.0,23.0,28.50,WNW,292,0.0,0.0,69,0.00,CLR,CLR,0.00,WeatherDisplay:10.37,2013-01-29 14:06:00,
2013-01-29 08:11:00,32.0,23.0,28.50,West,270,0.0,0.0,69,0.00,CLR,CLR,0.00,WeatherDisplay:10.37,2013-01-29 14:11:00,
2013-01-29 08:16:00,32.0,23.0,28.50,West,270,0.0,0.0,69,0.00,CLR,CLR,0.00,WeatherDisplay:10.37,2013-01-29 14:16:00,
2013-01-29 08:21:00,32.0,23.0,28.50,WNW,292,0.0,0.0,69,0.00,CLR,CLR,0.00,WeatherDisplay:10.37,2013-01-29 14:21:00,
2013-01-29 08:26:00,32.0,23.0,28.50,NW,315,2.6,0.0,69,0.00,CLR,CLR,0.00,WeatherDisplay:10.37,2013-01-29 14:26:00,
2013-01-29 08:31:00,32.0,23.0,28.50,NW,315,2.3,0.0,69,0.00,CLR,CLR,0.00,WeatherDisplay:10.37,2013-01-29 14:31:00,
2013-01-29 08:36:00,32.0,23.0,28.50,WNW,292,0.0,0.0,69,0.00,CLR,CLR,0.00,WeatherDisplay:10.37,2013-01-29 14:36:00,
2013-01-29 08:41:00,32.0,23.0,28.50,NW,315,0.0,0.0,69,0.00,CLR,CLR,0.00,WeatherDisplay:10.37,2013-01-29 14:41:00,
2013-01-29 08:46:00,32.0,23.0,28.50,NW,315,0.0,0.0,69,0.00,CLR,CLR,0.00,WeatherDisplay:10.37,2013-01-29 14:46:00,
2013-01-29 08:51:00,32.0,23.0,28.50,NW,315,0.0,0.0,69,0.00,CLR,CLR,0.00,WeatherDisplay:10.37,2013-01-29 14:51:00,
2013-01-29 08:56:00,32.0,23.0,28.50,WNW,292,0.0,0.0,69,0.00,CLR,CLR,0.00,WeatherDisplay:10.37,2013-01-29 14:56:00,
2013-01-29 09:01:00,32.0,23.0,28.50,NW,315,0.0,0.0,69,0.00,CLR,CLR,0.00,WeatherDisplay:10.37,2013-01-29 15:01:00,
2013-01-29 09:06:00,32.0,23.0,28.50,NW,315,0.0,0.0,69,0.00,CLR,CLR,0.00,WeatherDisplay:10.37,2013-01-29 15:06:00,
2013-01-29 09:11:00,139.6,99.9,28.50,NW,315,0.0,0.0,70,0.00,CLR,CLR,0.00,WeatherDisplay:10.37,2013-01-29 15:11:00,
2013-01-29 09:17:00,138.6,99.9,28.50,NW,315,0.0,0.0,70,0.00,CLR,CLR,0.00,WeatherDisplay:10.37,2013-01-29 15:17:00,
2013-01-29 09:22:00,137.3,99.9,28.50,WNW,292,0.0,0.0,70,0.00,CLR,CLR,0.00,WeatherDisplay:10.37,2013-01-29 15:22:00,
2013-01-29 09:27:00,135.9,99.9,28.50,NW,315,0.0,0.0,71,0.00,CLR,CLR,0.00,WeatherDisplay:10.37,2013-01-29 15:27:00,
2013-01-29 09:32:00,134.4,99.9,28.47,NW,315,0.0,0.0,71,0.00,CLR,CLR,0.00,WeatherDisplay:10.37,2013-01-29 15:32:00,
2013-01-29 09:37:00,132.4,99.9,28.47,NW,315,0.0,0.0,72,0.00,CLR,CLR,0.00,WeatherDisplay:10.37,2013-01-29 15:37:00,
2013-01-29 09:42:00,130.8,99.9,28.47,NW,315,0.0,0.0,72,0.00,CLR,CLR,0.00,WeatherDisplay:10.37,2013-01-29 15:42:00,
2013-01-29 09:47:00,128.1,99.9,28.50,NNW,338,0.0,0.0,72,0.00,CLR,CLR,0.00,WeatherDisplay:10.37,2013-01-29 15:47:00,
2013-01-29 09:52:00,124.7,99.9,28.50,NW,315,0.0,0.0,73,0.00,CLR,CLR,0.00,WeatherDisplay:10.37,2013-01-29 15:52:00,
2013-01-29 09:57:00,105.1,96.8,28.50,NNW,338,0.0,0.0,78,0.00,CLR,CLR,0.00,WeatherDisplay:10.37,2013-01-29 15:57:00,
2013-01-29 10:02:00,103.8,95.6,28.47,NW,315,0.0,0.0,78,0.00,CLR,CLR,0.00,WeatherDisplay:10.37,2013-01-29 16:02:00,
2013-01-29 10:07:00,102.9,95.1,28.47,NW,315,0.0,0.0,79,0.00,CLR,CLR,0.00,WeatherDisplay:10.37,2013-01-29 16:07:00,
2013-01-29 10:12:00,101.7,93.9,28.47,WNW,292,0.0,0.0,79,0.00,CLR,CLR,0.00,WeatherDisplay:10.37,2013-01-29 16:12:00,
2013-01-29 10:17:00,100.6,93.3,28.50,NW,315,0.0,0.0,80,0.00,CLR,CLR,0.00,WeatherDisplay:10.37,2013-01-29 16:17:00,
2013-01-29 10:22:00,99.7,92.8,28.50,NNW,338,0.0,0.0,81,0.00,CLR,CLR,0.00,WeatherDisplay:10.37,2013-01-29 16:22:00,
2013-01-29 10:27:00,98.4,91.6,28.50,WNW,292,0.0,0.0,81,0.00,CLR,CLR,0.00,WeatherDisplay:10.37,2013-01-29 16:27:00,
2013-01-29 10:32:00,97.5,91.1,28.50,NW,315,0.0,0.0,82,0.00,CLR,CLR,0.00,WeatherDisplay:10.37,2013-01-29 16:32:00,
2013-01-29 10:37:00,96.3,89.9,28.50,NW,315,0.0,0.0,82,0.00,CLR,CLR,0.00,WeatherDisplay:10.37,2013-01-29 16:37:00,
2013-01-29 10:42:00,95.2,89.2,28.50,NW,315,0.0,0.0,83,0.00,CLR,CLR,0.00,WeatherDisplay:10.37,2013-01-29 16:42:00,
2013-01-29 10:47:00,93.7,87.8,28.50,NNW,338,0.0,0.0,83,0.00,CLR,CLR,0.00,WeatherDisplay:10.37,2013-01-29 16:47:00,
2013-01-29 10:52:00,92.3,86.8,28.50,North,0,0.0,0.0,84,0.00,CLR,CLR,0.00,WeatherDisplay:10.37,2013-01-29 16:52:00,
2013-01-29 10:58:00,90.5,85.0,28.50,NW,315,0.0,0.0,84,0.00,CLR,CLR,0.00,WeatherDisplay:10.37,2013-01-29 16:58:00,
2013-01-29 11:03:00,89.4,83.9,28.50,NW,315,0.0,0.0,84,0.00,CLR,CLR,0.00,WeatherDisplay:10.37,2013-01-29 17:03:00,
2013-01-29 11:08:00,87.8,82.4,28.50,NW,315,0.0,0.0,84,0.00,CLR,CLR,0.00,WeatherDisplay:10.37,2013-01-29 17:08:00,
2013-01-29 11:14:00,84.9,79.9,28.50,NW,315,0.0,0.0,85,0.00,CLR,CLR,0.00,WeatherDisplay:10.37,2013-01-29 17:14:00,
2013-01-29 11:19:00,81.5,76.6,28.50,NNW,338,2.3,0.0,85,0.00,CLR,CLR,0.00,WeatherDisplay:10.37,2013-01-29 17:19:00,
2013-01-29 11:24:00,78.3,73.7,28.50,NW,315,0.0,0.0,86,0.00,CLR,CLR,0.00,WeatherDisplay:10.37,2013-01-29 17:24:00,
2013-01-29 11:29:00,75.4,70.9,28.47,NW,315,2.3,0.0,86,0.00,CLR,CLR,0.00,WeatherDisplay:10.37,2013-01-29 17:29:00,
2013-01-29 11:34:00,72.1,67.7,28.47,NNW,338,0.0,0.0,86,0.00,CLR,CLR,0.00,WeatherDisplay:10.37,2013-01-29 17:34:00,
2013-01-29 11:39:00,68.9,64.5,28.47,NNW,338,2.3,0.0,86,0.00,CLR,CLR,0.00,WeatherDisplay:10.37,2013-01-29 17:39:00,
2013-01-29 11:44:00,65.5,61.2,28.47,NW,315,3.5,0.0,86,0.00,CLR,CLR,0.00,WeatherDisplay:10.37,2013-01-29 17:44:00,
2013-01-29 11:49:00,62.2,58.0,28.47,NW,315,2.3,0.0,86,0.00,CLR,CLR,0.00,WeatherDisplay:10.37,2013-01-29 17:49:00,
2013-01-29 11:54:00,59.9,55.4,28.47,NNW,338,3.5,0.0,85,0.00,CLR,CLR,0.00,WeatherDisplay:10.37,2013-01-29 17:54:00,
2013-01-29 11:59:00,57.2,52.7,28.47,North,0,0.0,0.0,85,0.00,CLR,CLR,0.00,WeatherDisplay:10.37,2013-01-29 17:59:00,
2013-01-29 12:04:00,54.9,50.4,28.47,NNW,338,0.0,0.0,85,0.00,CLR,CLR,0.00,WeatherDisplay:10.37,2013-01-29 18:04:00,
2013-01-29 12:09:00,52.9,48.5,28.47,NW,315,0.0,0.0,85,0.00,CLR,CLR,0.00,WeatherDisplay:10.37,2013-01-29 18:09:00,
2013-01-29 12:14:00,51.6,47.3,28.47,NW,315,0.0,0.0,85,0.00,CLR,CLR,0.00,WeatherDisplay:10.37,2013-01-29 18:14:00,
2013-01-29 12:19:00,51.3,46.9,28.47,NW,315,0.0,0.0,85,0.00,CLR,CLR,0.00,WeatherDisplay:10.37,2013-01-29 18:19:00,
2013-01-29 12:24:00,50.2,45.8,28.47,NW,315,2.3,0.0,85,0.00,CLR,CLR,0.00,WeatherDisplay:10.37,2013-01-29 18:24:00,
2013-01-29 12:29:00,50.0,45.7,28.47,NW,315,0.0,0.0,85,0.00,CLR,CLR,0.00,WeatherDisplay:10.37,2013-01-29 18:29:00,
2013-01-29 12:34:00,50.0,45.7,28.47,NW,315,0.0,0.0,85,0.00,CLR,CLR,0.00,WeatherDisplay:10.37,2013-01-29 18:34:00,
2013-01-29 12:39:00,50.2,46.2,28.47,NW,315,0.0,0.0,86,0.00,CLR,CLR,0.00,WeatherDisplay:10.37,2013-01-29 18:39:00,
2013-01-29 12:44:00,50.2,46.2,28.47,NW,315,0.0,0.0,86,0.00,CLR,CLR,0.00,WeatherDisplay:10.37,2013-01-29 18:44:00,
2013-01-29 12:49:00,49.3,45.3,28.47,NW,315,0.0,0.0,86,0.00,CLR,CLR,0.00,WeatherDisplay:10.37,2013-01-29 18:49:00,
2013-01-29 12:54:00,48.6,44.3,28.47,NNW,338,0.0,0.0,85,0.00,CLR,CLR,0.00,WeatherDisplay:10.37,2013-01-29 18:54:00,
2013-01-29 12:59:00,47.8,43.5,28.47,NW,315,3.5,0.0,85,0.00,CLR,CLR,0.00,WeatherDisplay:10.37,2013-01-29 18:59:00,
2013-01-29 13:04:00,47.3,43.0,28.47,NNW,338,2.3,0.0,85,0.00,CLR,CLR,0.00,WeatherDisplay:10.37,2013-01-29 19:04:00,
2013-01-29 13:09:00,47.1,42.8,28.47,NW,315,0.0,0.0,85,0.00,CLR,CLR,0.00,WeatherDisplay:10.37,2013-01-29 19:09:00,
2013-01-29 13:14:00,46.8,42.5,28.44,NW,315,0.0,0.0,85,0.00,CLR,CLR,0.00,WeatherDisplay:10.37,2013-01-29 19:14:00,
2013-01-29 13:19:00,46.4,42.1,28.44,NW,315,0.0,0.0,85,0.00,CLR,CLR,0.00,WeatherDisplay:10.37,2013-01-29 19:19:00,
2013-01-29 13:24:00,46.4,42.1,28.44,NW,315,2.3,0.0,85,0.00,CLR,CLR,0.00,WeatherDisplay:10.37,2013-01-29 19:24:00,
2013-01-29 13:29:00,46.2,42.0,28.44,NNW,338,0.0,0.0,85,0.00,CLR,CLR,0.00,WeatherDisplay:10.37,2013-01-29 19:29:00,
2013-01-29 13:34:00,45.3,40.8,28.44,NW,315,4.0,0.0,84,0.00,CLR,CLR,0.00,WeatherDisplay:10.37,2013-01-29 19:34:00,
2013-01-29 13:39:00,44.6,40.1,28.44,NW,315,0.0,0.0,84,0.00,CLR,CLR,0.00,WeatherDisplay:10.37,2013-01-29 19:39:00,
2013-01-29 13:44:00,44.2,39.7,28.44,North,0,6.2,6.2,84,0.00,CLR,CLR,0.00,WeatherDisplay:10.37,2013-01-29 19:44:00,
2013-01-29 13:49:00,43.7,38.9,28.44,NW,315,3.1,3.1,83,0.00,CLR,CLR,0.00,WeatherDisplay:10.37,2013-01-29 19:49:00,
2013-01-29 13:54:00,43.7,38.9,28.44,NW,315,2.3,0.0,83,0.00,CLR,CLR,0.00,WeatherDisplay:10.37,2013-01-29 19:54:00,
2013-01-29 13:59:00,43.5,38.7,28.44,NW,315,4.6,0.0,83,0.00,CLR,CLR,0.00,WeatherDisplay:10.37,2013-01-29 19:59:00,
2013-01-29 14:04:00,43.3,38.5,28.44,NW,315,4.9,0.0,83,0.00,CLR,CLR,0.00,WeatherDisplay:10.37,2013-01-29 20:04:00,
2013-01-29 14:09:00,43.3,38.5,28.44,NW,315,2.6,0.0,83,0.00,CLR,CLR,0.00,WeatherDisplay:10.37,2013-01-29 20:09:00,
2013-01-29 14:14:00,43.3,38.5,28.44,NNW,338,0.0,0.0,83,0.00,CLR,CLR,0.00,WeatherDisplay:10.37,2013-01-29 20:14:00,
2013-01-29 14:19:00,43.3,38.5,28.44,NW,315,4.5,0.0,83,0.00,CLR,CLR,0.00,WeatherDisplay:10.37,2013-01-29 20:19:00,
2013-01-29 14:24:00,43.3,38.5,28.44,NW,315,3.5,0.0,83,0.00,CLR,CLR,0.00,WeatherDisplay:10.37,2013-01-29 20:24:00,
2013-01-29 14:29:00,43.3,38.5,28.41,NW,315,5.8,5.8,83,0.00,CLR,CLR,0.00,WeatherDisplay:10.37,2013-01-29 20:29:00,
2013-01-29 14:34:00,43.0,38.2,28.41,NW,315,3.6,0.0,83,0.00,CLR,CLR,0.00,WeatherDisplay:10.37,2013-01-29 20:34:00,
2013-01-29 14:39:00,43.0,38.2,28.41,NW,315,8.1,0.0,83,0.00,CLR,CLR,0.00,WeatherDisplay:10.37,2013-01-29 20:39:00,
2013-01-29 14:44:00,43.2,38.3,28.44,NW,315,4.9,0.0,83,0.00,CLR,CLR,0.00,WeatherDisplay:10.37,2013-01-29 20:44:00,
2013-01-29 14:49:00,43.2,38.3,28.44,NNW,338,4.9,4.9,83,0.00,CLR,CLR,0.00,WeatherDisplay:10.37,2013-01-29 20:49:00,
2013-01-29 14:54:00,43.5,38.7,28.44,NW,315,7.1,7.1,83,0.00,CLR,CLR,0.00,WeatherDisplay:10.37,2013-01-29 20:54:00,
2013-01-29 14:59:00,43.5,38.7,28.44,NW,315,5.8,0.0,83,0.00,CLR,CLR,0.00,WeatherDisplay:10.37,2013-01-29 20:59:00,
2013-01-29 15:04:00,43.3,38.5,28.41,NNE,22,6.2,6.2,83,0.00,CLR,CLR,0.00,WeatherDisplay:10.37,2013-01-29 21:04:00,
2013-01-29 15:09:00,43.3,38.5,28.41,NNW,338,3.6,3.6,83,0.00,CLR,CLR,0.00,WeatherDisplay:10.37,2013-01-29 21:09:00,
2013-01-29 15:14:00,43.3,38.5,28.41,North,0,4.9,4.9,83,0.00,CLR,CLR,0.00,WeatherDisplay:10.37,2013-01-29 21:14:00,
2013-01-29 15:19:00,43.7,38.9,28.41,NNE,22,5.4,0.0,83,0.00,CLR,CLR,0.00,WeatherDisplay:10.37,2013-01-29 21:19:00,
2013-01-29 15:24:00,43.5,38.7,28.41,NNW,338,4.6,4.6,83,0.00,CLR,CLR,0.00,WeatherDisplay:10.37,2013-01-29 21:24:00,
2013-01-29 15:29:00,43.5,38.7,28.41,NNW,338,8.1,8.1,83,0.00,CLR,CLR,0.00,WeatherDisplay:10.37,2013-01-29 21:29:00,
2013-01-29 15:34:00,43.3,38.5,28.44,North,0,5.8,0.0,83,0.00,CLR,CLR,0.00,WeatherDisplay:10.37,2013-01-29 21:34:00,
2013-01-29 15:39:00,43.3,38.5,28.44,NNW,338,0.0,0.0,83,0.00,CLR,CLR,0.00,WeatherDisplay:10.37,2013-01-29 21:39:00,
2013-01-29 15:44:00,43.2,38.3,28.44,NNW,338,0.0,0.0,83,0.00,CLR,CLR,0.00,WeatherDisplay:10.37,2013-01-29 21:44:00,
2013-01-29 15:49:00,43.0,37.9,28.44,NNW,338,4.9,0.0,82,0.00,CLR,CLR,0.00,WeatherDisplay:10.37,2013-01-29 21:49:00,
2013-01-29 15:54:00,42.8,37.7,28.44,NNE,22,3.5,0.0,82,0.00,CLR,CLR,0.00,WeatherDisplay:10.37,2013-01-29 21:54:00,
2013-01-29 15:59:00,42.8,37.7,28.44,NNW,338,4.0,0.0,82,0.00,CLR,CLR,0.00,WeatherDisplay:10.37,2013-01-29 21:59:00,
2013-01-29 16:04:00,42.8,37.7,28.44,NW,315,9.2,0.0,82,0.00,CLR,CLR,0.00,WeatherDisplay:10.37,2013-01-29 22:04:00,
2013-01-29 16:09:00,43.0,37.9,28.44,North,0,3.1,3.1,82,0.00,CLR,CLR,0.00,WeatherDisplay:10.37,2013-01-29 22:09:00,
2013-01-29 16:14:00,43.0,37.9,28.44,NW,315,4.6,0.0,82,0.00,CLR,CLR,0.00,WeatherDisplay:10.37,2013-01-29 22:14:00,
2013-01-29 16:19:00,43.2,38.3,28.41,NNW,338,0.0,0.0,83,0.00,CLR,CLR,0.00,WeatherDisplay:10.37,2013-01-29 22:19:00,
2013-01-29 16:24:00,43.0,37.9,28.41,NNW,338,2.6,0.0,82,0.00,CLR,CLR,0.00,WeatherDisplay:10.37,2013-01-29 22:24:00,
2013-01-29 16:29:00,42.8,37.7,28.44,North,0,4.9,0.0,82,0.00,CLR,CLR,0.00,WeatherDisplay:10.37,2013-01-29 22:29:00,
2013-01-29 16:34:00,42.8,37.7,28.44,NNW,338,3.6,0.0,82,0.00,CLR,CLR,0.00,WeatherDisplay:10.37,2013-01-29 22:34:00,
2013-01-29 16:39:00,42.8,37.7,28.44,NW,315,0.0,0.0,82,0.00,CLR,CLR,0.00,WeatherDisplay:10.37,2013-01-29 22:39:00,
2013-01-29 16:44:00,43.0,38.2,28.44,NW,315,0.0,0.0,83,0.00,CLR,CLR,0.00,WeatherDisplay:10.37,2013-01-29 22:44:00,
2013-01-29 16:49:00,43.3,38.5,28.44,NW,315,0.0,0.0,83,0.00,CLR,CLR,0.00,WeatherDisplay:10.37,2013-01-29 22:49:00,
2013-01-29 16:54:00,43.5,38.7,28.44,NW,315,0.0,0.0,83,0.00,CLR,CLR,0.00,WeatherDisplay:10.37,2013-01-29 22:54:00,
2013-01-29 16:59:00,43.7,38.9,28.44,NW,315,0.0,0.0,83,0.00,CLR,CLR,0.00,WeatherDisplay:10.37,2013-01-29 22:59:00,
2013-01-29 17:04:00,43.9,39.1,28.44,NW,315,0.0,0.0,83,0.00,CLR,CLR,0.00,WeatherDisplay:10.37,2013-01-29 23:04:00,
2013-01-29 17:09:00,44.1,39.5,28.44,NW,315,0.0,0.0,84,0.00,CLR,CLR,0.00,WeatherDisplay:10.37,2013-01-29 23:09:00,
2013-01-29 17:14:00,44.2,39.7,28.44,NNW,338,4.5,0.0,84,0.00,CLR,CLR,0.00,WeatherDisplay:10.37,2013-01-29 23:14:00,
2013-01-29 17:19:00,44.2,39.7,28.44,North,0,5.4,5.4,84,0.00,CLR,CLR,0.00,WeatherDisplay:10.37,2013-01-29 23:19:00,
2013-01-29 17:24:00,43.9,39.1,28.44,NNW,338,6.2,0.0,83,0.00,CLR,CLR,0.00,WeatherDisplay:10.37,2013-01-29 23:24:00,
2013-01-29 17:29:00,43.5,38.7,28.44,NNE,22,3.6,0.0,83,0.00,CLR,CLR,0.00,WeatherDisplay:10.37,2013-01-29 23:29:00,
2013-01-29 17:35:00,43.0,37.9,28.44,NNW,338,2.3,0.0,82,0.00,CLR,CLR,0.00,WeatherDisplay:10.37,2013-01-29 23:35:00,
2013-01-29 17:40:00,42.4,37.3,28.44,NNW,338,8.1,0.0,82,0.00,CLR,CLR,0.00,WeatherDisplay:10.37,2013-01-29 23:40:00,
2013-01-29 17:45:00,42.1,36.7,28.44,NNE,22,2.3,0.0,81,0.00,CLR,CLR,0.00,WeatherDisplay:10.37,2013-01-29 23:45:00,
2013-01-29 17:50:00,41.5,35.8,28.44,NNW,338,3.6,0.0,80,0.00,CLR,CLR,0.00,WeatherDisplay:10.37,2013-01-29 23:50:00,
2013-01-29 17:55:00,41.4,35.7,28.44,NNW,338,3.5,0.0,80,0.00,CLR,CLR,0.00,WeatherDisplay:10.37,2013-01-29 23:55:00,
2013-01-29 18:00:00,41.2,35.5,28.41,NW,315,5.8,0.0,80,0.00,CLR,CLR,0.00,WeatherDisplay:10.37,2013-01-30 00:00:00,
2013-01-29 18:05:00,41.2,35.5,28.41,NNW,338,6.2,0.0,80,0.00,CLR,CLR,0.00,WeatherDisplay:10.37,2013-01-30 00:05:00,
2013-01-29 18:10:00,41.4,35.7,28.41,NW,315,0.0,0.0,80,0.00,CLR,CLR,0.00,WeatherDisplay:10.37,2013-01-30 00:10:00,
2013-01-29 18:15:00,41.5,35.8,28.44,NNW,338,2.3,0.0,80,0.00,CLR,CLR,0.00,WeatherDisplay:10.37,2013-01-30 00:15:00,
2013-01-29 18:20:00,41.7,36.3,28.44,NNW,338,3.6,0.0,81,0.00,CLR,CLR,0.00,WeatherDisplay:10.37,2013-01-30 00:20:00,
2013-01-29 18:25:00,41.7,36.3,28.44,North,0,2.3,0.0,81,0.00,CLR,CLR,0.00,WeatherDisplay:10.37,2013-01-30 00:25:00,
2013-01-29 18:30:00,42.1,37.0,28.44,NNW,338,4.6,0.0,82,0.00,CLR,CLR,0.00,WeatherDisplay:10.37,2013-01-30 00:30:00,
2013-01-29 18:35:00,42.4,37.3,28.44,NNW,338,3.6,0.0,82,0.00,CLR,CLR,0.00,WeatherDisplay:10.37,2013-01-30 00:35:00,
2013-01-29 18:41:00,43.2,38.3,28.44,NNW,338,3.6,0.0,83,0.00,CLR,CLR,0.00,WeatherDisplay:10.37,2013-01-30 00:41:00,
2013-01-29 18:46:00,43.7,39.2,28.44,NW,315,2.3,0.0,84,0.00,CLR,CLR,0.00,WeatherDisplay:10.37,2013-01-30 00:46:00,
2013-01-29 18:51:00,44.6,40.1,28.44,NNW,338,0.0,0.0,84,0.00,CLR,CLR,0.00,WeatherDisplay:10.37,2013-01-30 00:51:00,
2013-01-29 18:56:00,45.3,41.1,28.44,NNW,338,4.6,0.0,85,0.00,CLR,CLR,0.00,WeatherDisplay:10.37,2013-01-30 00:56:00,
2013-01-29 19:01:00,46.0,41.8,28.47,NW,315,0.0,0.0,85,0.00,CLR,CLR,0.00,WeatherDisplay:10.37,2013-01-30 01:01:00,
2013-01-29 19:06:00,46.4,42.1,28.47,NW,315,3.5,0.0,85,0.00,CLR,CLR,0.00,WeatherDisplay:10.37,2013-01-30 01:06:00,
2013-01-29 19:11:00,46.9,43.0,28.47,NNW,338,3.1,0.0,86,0.00,CLR,CLR,0.00,WeatherDisplay:10.37,2013-01-30 01:11:00,
2013-01-29 19:16:00,47.3,43.3,28.47,NNW,338,4.6,0.0,86,0.00,CLR,CLR,0.00,WeatherDisplay:10.37,2013-01-30 01:16:00,
2013-01-29 19:21:00,47.8,43.9,28.47,NW,315,0.0,0.0,86,0.00,CLR,CLR,0.00,WeatherDisplay:10.37,2013-01-30 01:21:00,
2013-01-29 19:26:00,48.7,44.7,28.47,NNW,338,0.0,0.0,86,0.00,CLR,CLR,0.00,WeatherDisplay:10.37,2013-01-30 01:26:00,
2013-01-29 19:31:00,49.6,45.9,28.50,NW,315,0.0,0.0,87,0.00,CLR,CLR,0.00,WeatherDisplay:10.37,2013-01-30 01:31:00,
2013-01-29 19:36:00,50.5,47.1,28.50,NW,315,2.6,0.0,88,0.00,CLR,CLR,0.00,WeatherDisplay:10.37,2013-01-30 01:36:00,
2013-01-29 19:41:00,51.6,48.2,28.50,NW,315,0.0,0.0,88,0.00,CLR,CLR,0.00,WeatherDisplay:10.37,2013-01-30 01:41:00,
2013-01-29 19:46:00,52.7,49.2,28.50,NW,315,2.6,0.0,88,0.00,CLR,CLR,0.00,WeatherDisplay:10.37,2013-01-30 01:46:00,
2013-01-29 19:51:00,54.0,50.5,28.50,NW,315,5.8,5.8,88,0.00,CLR,CLR,0.00,WeatherDisplay:10.37,2013-01-30 01:51:00,
2013-01-29 19:56:00,55.2,52.0,28.50,NW,315,2.2,0.0,89,0.00,CLR,CLR,0.00,WeatherDisplay:10.37,2013-01-30 01:56:00,
2013-01-29 20:01:00,56.5,53.3,28.50,WNW,292,8.3,8.3,89,0.00,CLR,CLR,0.00,WeatherDisplay:10.37,2013-01-30 02:01:00,
2013-01-29 20:06:00,57.7,54.2,28.50,NW,315,4.6,4.6,88,0.00,CLR,CLR,0.00,WeatherDisplay:10.37,2013-01-30 02:06:00,
2013-01-29 20:11:00,58.8,55.3,28.50,NW,315,2.2,0.0,88,0.00,CLR,CLR,0.00,WeatherDisplay:10.37,2013-01-30 02:11:00,
2013-01-29 20:16:00,60.1,56.5,28.50,NW,315,0.0,0.0,88,0.00,CLR,CLR,0.00,WeatherDisplay:10.37,2013-01-30 02:16:00,
2013-01-29 20:21:00,60.6,57.0,28.50,NW,315,3.5,0.0,88,0.00,CLR,CLR,0.00,WeatherDisplay:10.37,2013-01-30 02:21:00,
2013-01-29 20:26:00,61.9,58.3,28.50,NW,315,3.1,0.0,88,0.00,CLR,CLR,0.00,WeatherDisplay:10.37,2013-01-30 02:26:00,
2013-01-29 20:31:00,62.6,58.7,28.50,NW,315,2.3,0.0,87,0.00,CLR,CLR,0.00,WeatherDisplay:10.37,2013-01-30 02:31:00,
2013-01-29 20:36:00,63.5,59.6,28.50,NW,315,4.9,4.9,87,0.00,CLR,CLR,0.00,WeatherDisplay:10.37,2013-01-30 02:36:00,
2013-01-29 20:41:00,64.2,60.3,28.50,NW,315,0.0,0.0,87,0.00,CLR,CLR,0.00,WeatherDisplay:10.37,2013-01-30 02:41:00,
2013-01-29 20:46:00,65.1,60.8,28.50,NW,315,0.0,0.0,86,0.00,CLR,CLR,0.00,WeatherDisplay:10.37,2013-01-30 02:46:00,
2013-01-29 20:51:00,65.8,61.5,28.50,WNW,292,9.2,9.2,86,0.00,CLR,CLR,0.00,WeatherDisplay:10.37,2013-01-30 02:51:00,
2013-01-29 20:56:00,66.6,62.2,28.50,NW,315,8.1,8.1,86,0.00,CLR,CLR,0.00,WeatherDisplay:10.37,2013-01-30 02:56:00,
2013-01-29 21:01:00,66.9,62.6,28.44,NW,315,8.1,8.1,86,0.00,CLR,CLR,0.00,WeatherDisplay:10.37,2013-01-30 03:01:00,
2013-01-29 21:06:00,67.8,63.5,28.44,NNW,338,10.4,10.4,86,0.00,CLR,CLR,0.00,WeatherDisplay:10.37,2013-01-30 03:06:00,
2013-01-29 21:11:00,68.5,63.8,28.44,NW,315,9.7,9.7,85,0.00,CLR,CLR,0.00,WeatherDisplay:10.37,2013-01-30 03:11:00,
2013-01-29 21:16:00,69.4,64.7,28.44,NW,315,8.1,8.1,85,0.00,CLR,CLR,0.00,WeatherDisplay:10.37,2013-01-30 03:16:00,
2013-01-29 21:21:00,70.0,65.3,28.44,NW,315,8.3,8.3,85,0.00,CLR,CLR,0.00,WeatherDisplay:10.37,2013-01-30 03:21:00,
2013-01-29 21:26:00,70.7,66.0,28.44,NW,315,5.9,5.9,85,0.00,CLR,CLR,0.00,WeatherDisplay:10.37,2013-01-30 03:26:00,
2013-01-29 21:31:00,71.2,66.5,28.44,NW,315,5.8,5.8,85,0.00,CLR,CLR,0.00,WeatherDisplay:10.37,2013-01-30 03:31:00,
2013-01-29 21:36:00,71.6,66.5,28.44,NW,315,8.1,8.1,84,0.00,CLR,CLR,0.00,WeatherDisplay:10.37,2013-01-30 03:36:00,
2013-01-29 21:41:00,72.1,67.0,28.44,NW,315,5.8,5.8,84,0.00,CLR,CLR,0.00,WeatherDisplay:10.37,2013-01-30 03:41:00,
2013-01-29 21:46:00,72.5,67.4,28.50,NW,315,0.0,0.0,84,0.00,CLR,CLR,0.00,WeatherDisplay:10.37,2013-01-30 03:46:00,
2013-01-29 21:51:00,72.9,67.7,28.50,NW,315,8.1,8.1,84,0.00,CLR,CLR,0.00,WeatherDisplay:10.37,2013-01-30 03:51:00,
2013-01-29 21:56:00,73.0,67.9,28.50,NW,315,9.2,9.2,84,0.00,CLR,CLR,0.00,WeatherDisplay:10.37,2013-01-30 03:56:00,
2013-01-29 22:01:00,73.2,68.1,28.47,NW,315,5.4,0.0,84,0.00,CLR,CLR,0.00,WeatherDisplay:10.37,2013-01-30 04:01:00,
2013-01-29 22:06:00,73.2,68.1,28.47,NW,315,5.4,5.4,84,0.00,CLR,CLR,0.00,WeatherDisplay:10.37,2013-01-30 04:06:00,
2013-01-29 22:11:00,73.2,68.1,28.47,NW,315,6.9,6.9,84,0.00,CLR,CLR,0.00,WeatherDisplay:10.37,2013-01-30 04:11:00,
2013-01-29 22:16:00,73.2,68.1,28.47,NW,315,7.6,7.6,84,0.00,CLR,CLR,0.00,WeatherDisplay:10.37,2013-01-30 04:16:00,
2013-01-29 22:21:00,73.0,67.9,28.47,NW,315,2.3,0.0,84,0.00,CLR,CLR,0.00,WeatherDisplay:10.37,2013-01-30 04:21:00,
2013-01-29 22:26:00,72.9,67.7,28.47,NW,315,3.5,0.0,84,0.00,CLR,CLR,0.00,WeatherDisplay:10.37,2013-01-30 04:26:00,
2013-01-29 22:31:00,72.7,67.6,28.47,NW,315,4.6,4.6,84,0.00,CLR,CLR,0.00,WeatherDisplay:10.37,2013-01-30 04:31:00,
2013-01-29 22:36:00,72.3,67.2,28.47,NW,315,2.3,0.0,84,0.00,CLR,CLR,0.00,WeatherDisplay:10.37,2013-01-30 04:36:00,
2013-01-29 22:41:00,72.0,66.9,28.47,NW,315,5.8,5.8,84,0.00,CLR,CLR,0.00,WeatherDisplay:10.37,2013-01-30 04:41:00,
2013-01-29 22:46:00,71.4,66.7,28.50,WNW,292,5.8,0.0,85,0.00,CLR,CLR,0.00,WeatherDisplay:10.37,2013-01-30 04:46:00,
2013-01-29 22:51:00,71.1,66.3,28.50,NNW,338,4.6,4.6,85,0.00,CLR,CLR,0.00,WeatherDisplay:10.37,2013-01-30 04:51:00,
2013-01-29 22:56:00,70.7,66.0,28.50,NW,315,2.3,0.0,85,0.00,CLR,CLR,0.00,WeatherDisplay:10.37,2013-01-30 04:56:00,
2013-01-29 23:03:00,70.2,65.4,28.50,NW,315,2.6,0.0,85,0.00,CLR,CLR,0.00,WeatherDisplay:10.37,2013-01-30 05:03:00,
2013-01-29 23:05:00,70.0,65.3,28.50,NW,315,2.3,0.0,85,0.00,CLR,CLR,0.00,WeatherDisplay:10.37,2013-01-30 05:05:00,
2013-01-29 23:06:00,70.0,65.3,28.50,NNW,338,2.3,0.0,85,0.00,CLR,CLR,0.00,WeatherDisplay:10.37,2013-01-30 05:06:00,
2013-01-29 23:11:00,69.8,65.1,28.50,NW,315,0.0,0.0,85,0.00,CLR,CLR,0.00,WeatherDisplay:10.37,2013-01-30 05:11:00,
2013-01-29 23:13:00,69.6,64.9,28.50,NNW,338,0.0,0.0,85,0.00,CLR,CLR,0.00,WeatherDisplay:10.37,2013-01-30 05:13:00,
2013-01-29 23:18:00,69.4,64.7,28.50,NW,315,0.0,0.0,85,0.00,CLR,CLR,0.00,WeatherDisplay:10.37,2013-01-30 05:18:00,
2013-01-29 23:23:00,69.3,64.6,28.50,NW,315,0.0,0.0,85,0.00,CLR,CLR,0.00,WeatherDisplay:10.37,2013-01-30 05:23:00,
2013-01-29 23:28:00,69.1,64.4,28.50,NW,315,4.6,0.0,85,0.00,CLR,CLR,0.00,WeatherDisplay:10.37,2013-01-30 05:28:00,
2013-01-29 23:33:00,69.1,64.4,28.47,NNW,338,4.0,0.0,85,0.00,CLR,CLR,0.00,WeatherDisplay:10.37,2013-01-30 05:33:00,
2013-01-29 23:38:00,69.1,64.4,28.47,NNW,338,0.0,0.0,85,0.00,CLR,CLR,0.00,WeatherDisplay:10.37,2013-01-30 05:38:00,
2013-01-29 23:43:00,69.3,64.6,28.47,WNW,292,0.0,0.0,85,0.00,CLR,CLR,0.00,WeatherDisplay:10.37,2013-01-30 05:43:00,
2013-01-29 23:48:00,69.4,64.7,28.47,NW,315,4.9,0.0,85,0.00,CLR,CLR,0.00,WeatherDisplay:10.37,2013-01-30 05:48:00,
2013-01-29 23:53:00,69.6,64.9,28.47,NW,315,3.6,0.0,85,0.00,CLR,CLR,0.00,WeatherDisplay:10.37,2013-01-30 05:53:00,
2013-01-29 23:58:00,70.0,64.9,28.47,NW,315,6.2,6.2,84,0.00,CLR,CLR,0.00,WeatherDisplay:10.37,2013-01-30 05:58:00,